This is the latest recevied weather packets stored in our database for station/object WH6VH. If no packets are shown the sender has not sent any weather packets the latest 10 day(s).
| Time | Temp. | Humidity | Pressure | Rain* | Wind** | Luminosity | Snow |
|---|---|---|---|---|---|---|---|
| 1777768505 | 20.56° C | 13% | 1015.6 hPa | 0 mm | - | - | - |
| 1777765804 | 22.78° C | 10% | 1016 hPa | 0 mm | - | - | - |
| 1777764005 | 22.22° C | 11% | 1016.4 hPa | 0 mm | - | - | - |
| 1777762504 | 22.22° C | 11% | 1016.7 hPa | 0 mm | - | - | - |
| 1777759805 | 22.22° C | 8% | 1017.4 hPa | 0 mm | - | - | - |
| 1777757405 | 21.67° C | 10% | 1018.1 hPa | 0 mm | - | - | - |
| 1777755005 | 21.67° C | 13% | 1019 hPa | 0 mm | - | - | - |
| 1777753504 | 21.67° C | 14% | 1019.3 hPa | 0 mm | - | - | - |
| 1777750805 | 20° C | 16% | 1019.8 hPa | 0 mm | - | - | - |
| 1777750205 | 20° C | 18% | 1019.9 hPa | 0 mm | - | - | - |
| 1777749904 | 19.44° C | 16% | 1020.1 hPa | 0 mm | - | - | - |
| 1777749304 | 20° C | 16% | 1020.3 hPa | 0 mm | - | - | - |
| 1777746304 | 17.78° C | 19% | 1021.3 hPa | 0 mm | - | - | - |
| 1777745105 | 17.78° C | 18% | 1021.6 hPa | 0 mm | - | - | - |
| 1777744504 | 17.78° C | 19% | 1021.7 hPa | 0 mm | - | - | - |
| 1777744204 | 17.78° C | 20% | 1021.7 hPa | 0 mm | - | - | - |
| 1777742704 | 17.22° C | 21% | 1022 hPa | 0 mm | - | - | - |
| 1777740604 | 16.11° C | 23% | 1022.4 hPa | 0 mm | - | - | - |
| 1777734305 | 11.67° C | 37% | 1023.1 hPa | 0 mm | - | - | - |
| 1777726205 | 3.33° C | 57% | 1023.4 hPa | 0 mm | - | - | - |
| 1777719005 | 3.89° C | 55% | 1022.8 hPa | 0 mm | - | - | - |
| 1777714505 | 4.44° C | 53% | 1022.5 hPa | 0 mm | - | - | - |
| 1777713305 | 4.44° C | 53% | 1022.5 hPa | 0 mm | - | - | - |
| 1777712705 | 4.44° C | 53% | 1022.5 hPa | 0 mm | - | - | - |
| 1777711805 | 5° C | 53% | 1022.5 hPa | 0 mm | - | - | - |
* Rain latest hour (hover to see other rain measurements)
** Current wind speed in m/s (hover to see current wind gust speed)